[[{"header":{"parameterUnit":"m.s-1","parameterCategory":1,"la1":30.2991,"la2":30.254,"lo1":-89.0895,"lo2":-89.0444,"dy":0.0017,"dx":0.0017,"nx":28,"ny":28,"refTime":"2024-06-03T03:00:00:Z","depth":0,"parameterNumber":2,"parameterNumberName":"U-component_of_WINDS"},"data":[0,0,0,0,0,0,0,0,0,0,0,0,0,0,0,0,0,0,0,0,0,0,0,0,0,0,0,0,0,0,0,0,0,0,0,0,0,0,0,0,0,0,0,0,0,0,0,0,0,0,0,0,0,0,0,0,0,0,-1.6855,-1.6856,0,-1.6883,-1.6884,-1.6884,-1.6882,-1.6882,-1.6882,-1.6881,-1.6908,-1.6909,-1.691,0,0,0,0,0,0,0,0,0,0,0,0,0,-1.68,-1.6801,-1.6855,-1.6856,-1.6856,-1.6883,-1.6884,-1.6884,-1.6883,-1.6882,-1.6882,-1.6881,-1.6908,-1.6909,-1.6911,0,0,0,0,0,0,0,0,0,0,0,0,0,-1.6826,-1.6801,-1.6855,-1.6859,-1.6859,-1.6883,-1.6884,-1.6884,-1.6883,-1.6882,-1.6881,-1.6881,-1.6908,-1.6909,-1.6911,-1.6933,0,0,-1.6916,-1.6917,0,0,0,0,0,0,0,0,-1.6824,-1.6828,-1.6858,-1.6858,-1.6859,-1.6879,-1.6874,-1.6901,-1.6883,-1.6874,-1.6881,-1.6881,-1.6899,-1.6901,-1.6908,-1.6934,-1.6935,-1.6916,-1.6917,-1.6918,-1.6918,0,0,0,0,0,0,0,-1.6822,-1.6826,-1.6866,-1.6858,-1.6859,-1.6859,-1.6862,-1.6879,-1.6889,-1.6874,-1.6874,-1.6878,-1.6899,-1.6906,-1.6908,-1.6936,-1.6916,-1.6917,-1.6918,-1.6919,-1.6983,-1.6983,0,0,0,0,0,0,-1.682,-1.6825,-1.6865,-1.6867,-1.684,-1.686,-1.6863,-1.6873,-1.6889,-1.6891,-1.6878,-1.6878,-1.6904,-1.6906,-1.6909,-1.6936,-1.6918,-1.6919,-1.692,-1.6982,-1.6983,-1.6984,0,0,0,0,0,0,-1.6819,-1.6824,-1.6864,-1.6846,-1.6851,-1.6862,-1.6873,-1.6874,-1.6881,-1.6892,-1.6894,-1.6884,-1.6903,-1.6907,-1.6927,-1.6937,-1.692,-1.6921,-1.6981,-1.6982,-1.6983,-1.6991,0,0,0,0,0,0,-1.6817,-1.6823,-1.6832,-1.6846,-1.6852,-1.6882,-1.6873,-1.6875,-1.6884,-1.6883,-1.6897,-1.6899,-1.6903,-1.6925,-1.6929,-1.6939,-1.6923,-1.698,-1.6982,-1.6983,-1.6989,-1.6992,-1.6994,0,0,0,0,0,-1.6815,-1.6832,-1.6832,-1.6837,-1.6863,-1.6883,-1.6886,-1.689,-1.6885,-1.6893,-1.6901,-1.6899,-1.6936,-1.6927,-1.6932,-1.6942,-1.698,-1.6981,-1.6983,-1.6988,-1.6991,-1.6994,0,0,0,0,0,0,-1.6817,-1.6834,-1.6834,-1.6856,-1.6868,-1.6882,-1.6893,-1.6893,-1.6906,-1.6905,-1.691,-1.6913,-1.6934,-1.694,-1.693,-1.6965,-1.6957,-1.696,-1.696,-1.6963,-1.6965,-1.6962,-1.6924,0,0,0,0,0,-1.682,-1.6835,-1.6849,-1.6867,-1.6873,-1.6882,-1.6891,-1.6894,-1.6906,-1.6911,-1.6919,-1.6931,-1.6946,-1.6955,-1.6969,-1.6991,-1.6994,-1.7001,-1.7003,-1.7005,-1.7007,-1.7019,-1.7022,-1.6989,-1.6989,-1.6989,0,0,-1.6826,-1.6838,-1.6846,-1.6868,-1.6877,-1.6892,-1.6886,-1.6902,-1.6913,-1.6913,-1.6932,-1.694,-1.6953,-1.6975,-1.6985,-1.6981,-1.7017,-1.7007,-1.7008,-1.7009,-1.7021,-1.7024,-1.7027,-1.699,-1.699,-1.699,0,0,-1.6845,-1.6855,-1.6872,-1.6882,-1.6897,-1.6903,-1.6907,-1.6922,-1.6927,-1.6947,-1.6947,-1.6961,-1.6986,-1.6995,-1.7003,-1.7028,-1.7027,-1.7033,-1.7043,-1.7056,-1.7058,-1.7061,-1.7069,-1.7072,-1.7035,-1.7035,-1.7035,0,-1.685,-1.6873,-1.688,-1.6896,-1.6906,-1.6908,-1.6924,-1.6934,-1.6952,-1.6959,-1.6955,-1.6986,-1.6996,-1.702,-1.7026,-1.7033,-1.7037,-1.703,-1.7058,-1.706,-1.7062,-1.707,-1.7073,-1.7035,-1.7035,-1.7035,-1.7035,0,-1.6879,-1.6895,-1.6907,-1.6925,-1.6937,-1.6953,-1.6962,-1.6972,-1.6975,-1.6982,-1.7003,-1.7015,-1.7031,-1.7037,-1.704,-1.7062,-1.7059,-1.7057,-1.7048,-1.7066,-1.7073,-1.7077,-1.7036,-1.7036,-1.7036,-1.7036,0,0,-1.6897,-1.6921,-1.6925,-1.6934,-1.6952,-1.6964,-1.6981,-1.6998,-1.7007,-1.7021,-1.7035,-1.7057,-1.7055,-1.7064,-1.7068,-1.7079,-1.7097,-1.7074,-1.7075,-1.7078,-1.7123,-1.7124,-1.7127,-1.7098,-1.7098,-1.7099,-1.7121,0,-1.6917,-1.6947,-1.6955,-1.698,-1.6995,-1.6999,-1.7014,-1.7026,-1.7034,-1.7047,-1.7056,-1.7071,-1.7067,-1.7073,-1.7084,-1.7093,-1.7106,-1.7091,-1.711,-1.7111,-1.7105,-1.7131,-1.7132,-1.7153,-1.7125,-1.7125,-1.7125,0,-1.6943,-1.6959,-1.6986,-1.7003,-1.701,-1.7023,-1.704,-1.7053,-1.7068,-1.7072,-1.7084,-1.7087,-1.7105,-1.7097,-1.7122,-1.7112,-1.712,-1.7126,-1.7127,-1.7127,-1.7118,-1.7132,-1.716,-1.7162,-1.713,-1.713,-1.713,0,-1.6953,-1.698,-1.7001,-1.7008,-1.7029,-1.7038,-1.7047,-1.7061,-1.7071,-1.7086,-1.7093,-1.7109,-1.7118,-1.7131,-1.7139,-1.7132,-1.7163,-1.7155,-1.7166,-1.7166,-1.7171,-1.717,-1.72,-1.7179,-1.7179,-1.7179,-1.7179,0,-1.6974,-1.699,-1.7005,-1.7017,-1.7036,-1.7045,-1.7064,-1.7073,-1.7086,-1.71,-1.7104,-1.7117,-1.7127,-1.7141,-1.7148,-1.7167,-1.7171,-1.7175,-1.7176,-1.7174,-1.7173,-1.7178,-1.7176,-1.718,-1.7179,-1.7179,-1.7179,0,-1.6987,-1.6998,-1.702,-1.7038,-1.7043,-1.7056,-1.7072,-1.7084,-1.7092,-1.711,-1.7115,-1.7128,-1.7145,-1.7155,-1.7176,-1.7181,-1.7202,-1.7203,-1.7197,-1.7197,-1.7207,-1.7206,-1.724,-1.7244,-1.7221,-1.7222,-1.7222,0,-1.6998,-1.7011,-1.7032,-1.7042,-1.7051,-1.7067,-1.7078,-1.7088,-1.7099,-1.7118,-1.7127,-1.7145,-1.716,-1.7188,-1.7199,-1.7216,-1.7216,-1.7227,-1.7219,-1.7216,-1.7215,-1.7214,-1.7215,-1.7228,-1.7228,-1.7228,-1.7228,0,-1.7018,-1.7023,-1.7039,-1.7057,-1.707,-1.7084,-1.7098,-1.7106,-1.7119,-1.7131,-1.7149,-1.7161,-1.7184,-1.7201,-1.7219,-1.7228,-1.723,-1.7232,-1.7235,-1.7232,-1.7227,-1.7229,-1.72,-1.723,-1.723,-1.723,-1.723,-1.723,-1.703,-1.7042,-1.7058,-1.7076,-1.7088,-1.7102,-1.7114,-1.7125,-1.7141,-1.716,-1.7165,-1.7185,-1.72,-1.7225,-1.7234,-1.7249,-1.7247,-1.7252,-1.7253,-1.7254,-1.7254,-1.7226,-1.7253,-1.7253,-1.7253,-1.7253,-1.7253,0,-1.7049,-1.706,-1.7076,-1.7097,-1.7111,-1.7113,-1.713,-1.7141,-1.7158,-1.7173,-1.7188,-1.7209,-1.7226,-1.724,-1.7258,-1.7267,-1.7269,-1.7272,-1.727,-1.7272,-1.7255,-1.725,-1.727,-1.727,-1.727,-1.727,-1.727,-1.727,-1.706,-1.708,-1.7088,-1.7115,-1.7126,-1.7145,-1.7154,-1.7167,-1.7179,-1.7203,-1.7218,-1.7227,-1.7241,-1.726,-1.7277,-1.728,-1.7286,-1.7289,-1.7292,-1.7275,-1.7273,-1.7272,-1.7267,-1.729,-1.729,-1.7308,-1.7308,-1.7308]},{"header":{"parameterUnit":"m.s-1","parameterCategory":1,"la1":30.2991,"la2":30.254,"lo1":-89.0895,"lo2":-89.0444,"dy":0.0017,"dx":0.0017,"nx":28,"ny":28,"refTime":"2024-06-03T03:00:00:Z","depth":0,"parameterNumber":3,"parameterNumberName":"V-component_of_WINDS"},"data":[0,0,0,0,0,0,0,0,0,0,0,0,0,0,0,0,0,0,0,0,0,0,0,0,0,0,0,0,0,0,0,0,0,0,0,0,0,0,0,0,0,0,0,0,0,0,0,0,0,0,0,0,0,0,0,0,0,0,5.7211,5.7212,0,5.7275,5.7275,5.7276,5.7289,5.7288,5.7288,5.7287,5.7346,5.7348,5.735,0,0,0,0,0,0,0,0,0,0,0,0,0,5.7095,5.7097,5.7211,5.7212,5.7212,5.7274,5.7275,5.7276,5.7289,5.7288,5.7288,5.7287,5.7346,5.7348,5.735,0,0,0,0,0,0,0,0,0,0,0,0,0,5.7151,5.7098,5.7211,5.7226,5.7228,5.7274,5.7275,5.7276,5.7289,5.7288,5.7288,5.7287,5.7345,5.7348,5.7351,5.7384,0,0,5.736,5.7361,0,0,0,0,0,0,0,0,5.7148,5.7155,5.7223,5.7225,5.7228,5.7273,5.7256,5.7312,5.7289,5.7266,5.7287,5.7287,5.7322,5.7327,5.734,5.7386,5.7389,5.736,5.7362,5.7363,5.7364,0,0,0,0,0,0,0,5.7144,5.7152,5.7236,5.7224,5.7227,5.7229,5.7236,5.7267,5.7297,5.7268,5.7269,5.7277,5.7323,5.7337,5.7342,5.739,5.736,5.7363,5.7365,5.7366,5.7468,5.7469,0,0,0,0,0,0,5.7138,5.7149,5.7234,5.7238,5.7185,5.7231,5.7239,5.7259,5.7297,5.7302,5.7277,5.7277,5.7332,5.7338,5.7344,5.7386,5.7363,5.7366,5.7368,5.7467,5.7468,5.7469,0,0,0,0,0,0,5.7135,5.7145,5.7231,5.7194,5.7205,5.7234,5.7256,5.7261,5.7275,5.7304,5.7309,5.7286,5.7332,5.734,5.7374,5.7388,5.7367,5.737,5.7466,5.7467,5.7468,5.747,0,0,0,0,0,0,5.7132,5.7144,5.7158,5.7194,5.7207,5.7262,5.7257,5.7263,5.7281,5.7281,5.7314,5.7318,5.7332,5.737,5.7377,5.7392,5.7373,5.7465,5.7466,5.7468,5.7469,5.7472,5.7474,0,0,0,0,0,5.7128,5.7154,5.7159,5.7169,5.7225,5.7263,5.727,5.7287,5.7282,5.7296,5.7314,5.7317,5.7386,5.7373,5.7382,5.7398,5.7464,5.7466,5.7468,5.7468,5.7471,5.7474,0,0,0,0,0,0,5.7116,5.7159,5.7165,5.7204,5.723,5.7265,5.7283,5.7289,5.7316,5.7315,5.7333,5.734,5.7374,5.7389,5.7375,5.7432,5.7424,5.7428,5.7422,5.7425,5.7427,5.7423,5.7375,0,0,0,0,0,5.7119,5.7148,5.7183,5.7214,5.7227,5.7253,5.727,5.7281,5.7308,5.7319,5.734,5.7364,5.7391,5.7409,5.7435,5.7471,5.7479,5.7486,5.7489,5.749,5.7494,5.7515,5.752,5.7475,5.7475,5.7475,0,0,5.7123,5.715,5.7167,5.7212,5.7234,5.7263,5.7262,5.7291,5.7313,5.7322,5.7358,5.7374,5.7403,5.7439,5.7456,5.7452,5.7508,5.7493,5.7494,5.7496,5.7518,5.7522,5.7526,5.7477,5.7477,5.7476,0,0,5.7146,5.7169,5.7199,5.7222,5.7256,5.7273,5.728,5.7315,5.7327,5.7363,5.7372,5.7396,5.7442,5.7463,5.7479,5.7513,5.7517,5.7521,5.7532,5.7554,5.7557,5.756,5.7573,5.7578,5.7524,5.7524,5.7524,0,5.7147,5.7192,5.7213,5.7244,5.7264,5.7276,5.7306,5.7326,5.7366,5.7379,5.7375,5.7435,5.7454,5.7497,5.7505,5.7518,5.7526,5.7517,5.7555,5.7559,5.7562,5.7574,5.7579,5.7524,5.7524,5.7524,5.7524,0,5.7192,5.7223,5.7243,5.7285,5.7307,5.7336,5.736,5.738,5.739,5.7407,5.7444,5.7469,5.7501,5.7512,5.752,5.7556,5.7553,5.7552,5.7544,5.7566,5.7578,5.7583,5.7524,5.7524,5.7524,5.7524,0,0,5.7208,5.7263,5.727,5.729,5.733,5.7353,5.7384,5.7418,5.7435,5.7462,5.7488,5.7528,5.7528,5.7547,5.7558,5.7576,5.7603,5.7573,5.7574,5.7579,5.7645,5.7646,5.7651,5.7606,5.7607,5.7608,5.7643,0,5.7237,5.7295,5.7315,5.7362,5.7392,5.7405,5.7432,5.7458,5.7475,5.7502,5.752,5.7549,5.7546,5.7558,5.7577,5.7596,5.7617,5.7593,5.763,5.7631,5.7623,5.7658,5.7659,5.7691,5.7648,5.7648,5.7649,0,5.7278,5.731,5.7361,5.7399,5.7412,5.7436,5.747,5.7495,5.7525,5.7537,5.7559,5.7569,5.7601,5.7591,5.7635,5.7619,5.7635,5.7647,5.7648,5.7653,5.7642,5.7664,5.7701,5.7706,5.7656,5.7656,5.7655,0,5.7287,5.7341,5.738,5.7396,5.7441,5.7458,5.7477,5.7506,5.7527,5.7556,5.7569,5.76,5.7617,5.7641,5.7659,5.765,5.7702,5.7693,5.7711,5.7711,5.7722,5.7721,5.7763,5.7731,5.7731,5.7731,5.773,0,5.7317,5.7348,5.7385,5.7408,5.7443,5.7465,5.7499,5.7518,5.7545,5.7572,5.7584,5.7608,5.7631,5.7658,5.7672,5.7706,5.7713,5.7723,5.7727,5.7723,5.7722,5.7734,5.7732,5.7732,5.7732,5.7731,5.7731,0,5.7333,5.7358,5.7401,5.7442,5.7452,5.7476,5.751,5.7533,5.7551,5.7585,5.7594,5.7622,5.7655,5.7676,5.7716,5.7726,5.7764,5.7766,5.7755,5.7757,5.7774,5.7773,5.7826,5.7835,5.7796,5.7796,5.7796,0,5.7351,5.7376,5.742,5.744,5.746,5.7492,5.7514,5.7536,5.7558,5.7596,5.7614,5.7648,5.7677,5.7728,5.7751,5.7783,5.7786,5.7803,5.7791,5.7787,5.7788,5.7787,5.779,5.7805,5.7805,5.7805,5.7805,0,5.7381,5.7393,5.7425,5.7463,5.7489,5.7519,5.7548,5.7563,5.7591,5.7614,5.765,5.7672,5.7716,5.7749,5.7783,5.7801,5.7808,5.7809,5.7815,5.7812,5.7805,5.781,5.7761,5.7808,5.7808,5.7807,5.7807,5.7807,5.7399,5.7423,5.7458,5.7494,5.7519,5.7547,5.7571,5.7594,5.7625,5.7664,5.7675,5.7712,5.7742,5.7789,5.7808,5.7836,5.7834,5.7842,5.7845,5.7847,5.7848,5.78,5.7842,5.7842,5.7842,5.7842,5.7842,0,5.7431,5.7455,5.7488,5.7531,5.7559,5.7566,5.7599,5.7622,5.7655,5.7684,5.7713,5.7754,5.7787,5.7814,5.7848,5.7866,5.787,5.7874,5.7873,5.7877,5.7847,5.7839,5.787,5.787,5.787,5.787,5.787,5.787,5.7451,5.7492,5.7509,5.7562,5.7585,5.7624,5.7643,5.7668,5.7692,5.7738,5.7767,5.7785,5.7813,5.785,5.7881,5.7888,5.79,5.7904,5.7911,5.7882,5.7879,5.7876,5.7869,5.7906,5.7906,5.7939,5.7939,5.794]}]]